Regional Weather Roundup
Issued by NWS

Home | Current Version | Previous Version | Graphics & Text | Print | Product List | Glossary On
Versions: 1 2 3 4 5 6 7 8 9 10 11 12 13 14 15 16 17 18 19 20 21 22 23 24 25 26 27 28 29 30 31 32 33 34 35 36 37 38 39 40 41 42 43 44 45 46 47 48 49 50
000
ASUS43 KLMK 021310
RWRKY
KENTUCKY REGIONAL WEATHER ROUNDUP
NATIONAL WEATHER SERVICE LOUISVILLE KY
900 AM EDT THU OCT 02 2014

NOTE "FAIR" INDICATES FEW OR NO CLOUDS BELOW 12,000 FEET
WITH NO SIGNIFICANT WEATHER AND/OR OBSTRUCTIONS TO VISIBILITY.

KYZ001>023-026-027-061>063-070>075-021400-
WESTERN AND SOUTH CENTRAL KENTUCKY

CITY           SKY/WX    TMP DP  RH WIND       PRES   REMARKS
PADUCAH        MOSUNNY   72  62  71 VRB7      29.94S
HENDERSON      NOT AVBL
OWENSBORO      PTSUNNY   69  59  70 S7        29.98S
HOPKINSVILLE   MOSUNNY   69  61  76 S5        30.01R
BOWLING GREEN  MOSUNNY   64  58  80 CALM      30.04R
GLASGOW        SUNNY     67  58  72 CALM      30.05R
$$

KYZ024-025-028>034-038-045-046-053-021400-
NORTH CENTRAL KENTUCKY

CITY           SKY/WX    TMP DP  RH WIND       PRES   REMARKS
LOUISVILLE/SDF MOSUNNY   66  58  75 SE8       30.02R
LOUISVILLE/LOU MOSUNNY   66  58  75 CALM      30.03R
FORT KNOX      SUNNY     65  59  81 S3        30.02R
$$

KYZ035>037-039>044-047>052-055>060-089>105-021400-
NORTHEAST KENTUCKY

CITY           SKY/WX    TMP DP  RH WIND       PRES   REMARKS
LEXINGTON      SUNNY     66  57  72 S8        30.07R
COVINGTON      MOSUNNY   64  58  80 S7        30.04R
FRANKFORT      SUNNY     64  58  80 SE3       30.04R
$$

KYZ054-064>069-076>088-106>120-021400-
SOUTHEAST KENTUCKY

CITY           SKY/WX    TMP DP  RH WIND       PRES   REMARKS
JACKSON        SUNNY     63  56  78 CALM      30.10R
LONDON         MOSUNNY   61  56  83 CALM      30.11R
SOMERSET       SUNNY     61  57  88 CALM      30.10R
MIDDLESBORO    FOG       54  54 100 CALM      30.14S VSB 1/4
MONTICELLO     SUNNY     66  59  78 S5        30.10R
$$



USA.gov is the U.S. government's official web portal to all federal, state and local government web resources and services.